Wind_Speed
13 13 12 12 11 11 10 10 9 9 9 8 8 8 8 8 8 8 8 8 8 9 9 9 9 9 10 10 10 10 10 10 10 9 10 10 10 10 10 10 10 11 11
15 14 14 13 13 13 12 11 11 11 10 10 10 9 9 9 9 9 10 10 10 10 10 11 11 11 11 11 11 11 11 11 11 11 11 11 11 11 12 12 12 12 12
17 16 16 15 14 14 14 13 13 12 12 12 12 11 11 11 11 11 11 12 12 12 12 12 12 13 13 13 13 13 13 13 13 13 13 12 12 12 13 13 13 13 13
19 18 17 17 16 15 15 15 14 14 14 13 13 13 13 13 13 13 13 13 13 13 14 14 14 15 15 15 15 15 15 14 14 14 14 14 14 14 15 15 15 15 15
20 20 19 18 18 17 17 17 16 16 16 15 15 15 15 15 15 15 15 15 15 16 16 16 16 17 17 17 17 17 17 16 16 16 16 16 16 16 16 16 16 16 16
22 21 21 20 20 19 19 19 19 19 18 18 18 17 17 17 17 17 18 18 18 18 18 18 18 18 19 19 18 18 18 18 18 18 18 18 18 18 18 17 17 17 18
24 23 23 22 21 21 21 21 21 21 21 21 20 19 19 20 20 20 20 20 20 20 21 21 20 20 20 20 20 19 19 19 19 19 19 19 19 19 19 19 19 19 19
26 25 24 24 23 23 23 22 23 23 23 23 22 21 21 21 21 22 22 22 22 22 22 22 22 21 21 21 21 21 21 21 21 21 21 21 22 21 21 21 21 21 21
28 27 26 26 25 25 24 24 24 24 24 24 23 22 23 22 23 23 23 23 23 23 23 22 22 22 23 23 23 23 23 23 23 23 23 24 24 24 24 23 23 23 23
29 28 28 28 26 26 26 25 25 26 25 25 25 24 24 23 23 24 24 24 24 24 23 23 23 24 24 24 25 25 25 26 25 25 26 26 26 26 26 26 26 26 25
30 29 29 28 27 27 27 27 27 26 26 26 26 25 25 24 24 24 24 24 24 24 24 24 24 25 25 26 26 26 27 28 28 28 28 28 29 29 29 29 28 28 28
30 29 29 28 28 27 27 27 27 26 26 27 27 27 26 25 25 25 25 25 25 25 25 26 26 27 27 28 28 28 28 29 30 30 30 30 30 31 31 31 31 31 31
31 30 29 29 28 28 28 27 27 27 27 27 26 26 26 26 26 26 26 25 26 26 27 27 28 28 29 29 30 30 30 30 31 32 32 32 32 32 32 32 32 33 33
31 31 31 31 30 30 29 28 28 27 27 26 27 26 26 26 26 26 27 27 27 28 28 29 30 30 30 31 31 32 32 32 33 33 33 33 33 33 33 34 34 34 35
32 32 31 31 30 30 30 29 28 27 26 27 26 26 25 26 26 27 28 29 29 30 30 30 30 31 31 32 32 32 33 33 34 34 34 34 35 35 35 36 36 36 36
33 33 32 32 32 32 31 31 29 28 27 28 27 26 27 27 27 28 29 30 30 31 31 31 31 32 33 33 33 34 34 35 35 36 36 36 36 37 38 37 37 37 38
33 33 33 33 33 33 32 32 31 30 29 29 28 28 28 28 29 30 31 31 31 31 32 32 33 33 34 34 35 35 36 37 37 37 38 38 38 39 39 39 39 39 39
33 33 33 33 33 33 33 32 32 31 30 30 30 29 29 29 30 31 32 32 32 32 33 33 33 34 35 35 36 37 37 38 38 38 39 39 40 40 41 41 41 41 41
33 33 33 33 33 33 33 32 32 32 32 32 32 32 32 31 32 32 32 33 33 33 34 34 35 36 36 37 38 37 38 38 39 39 39 40 40 41 42 42 42 43 43
33 33 33 34 34 34 33 32 32 33 32 32 33 33 33 32 33 33 34 34 33 34 35 35 36 37 37 38 38 37 38 38 39 39 40 41 41 42 42 43 43 44 44
32 32 33 33 33 33 33 33 33 33 34 34 34 34 34 33 34 34 34 34 35 35 36 36 37 37 38 38 38 38 39 39 40 40 41 41 42 43 44 44 45 45 45
30 31 31 32 32 32 32 32 33 34 34 34 35 35 35 35 35 35 34 34 35 36 36 37 37 38 38 39 39 40 40 40 41 41 41 42 42 43 45 46 46 46 47
30 30 31 31 32 32 32 32 33 34 35 36 35 35 35 35 36 36 36 36 36 36 37 38 38 39 39 40 40 41 41 41 41 42 43 44 44 45 45 46 47 47 47
29 30 31 31 32 33 34 34 34 35 36 37 37 36 36 36 36 38 37 37 37 38 39 39 39 40 40 40 41 42 42 42 42 42 43 44 44 44 44 44 44 46 46
30 30 31 31 33 34 35 35 35 36 37 37 37 37 37 37 37 38 39 40 39 39 39 40 41 41 41 41 41 41 42 42 43 43 42 42 43 43 44 44 44 45 45
30 31 31 32 33 34 34 36 36 36 37 37 36 37 38 38 39 40 40 40 40 41 41 42 42 42 42 42 42 41 42 42 42 42 42 42 42 42 43 44 44 44 44
Wind_Direction
241 242 244 244 243 242 243 246 249 251 252 256 260 265 269 272 274 277 280 280 280 281 281 282 283 284 285 285 285 285 285 286 286 287 288 288 287 285 285 287 289 291 293
241 241 243 245 245 245 245 247 250 252 254 257 261 265 269 271 273 276 279 281 282 282 283 282 282 282 283 283 284 284 283 281 281 283 285 286 285 284 285 285 286 287 289
242 243 243 245 245 245 247 248 250 253 255 257 261 264 267 270 271 273 277 278 279 279 280 281 281 282 282 282 282 283 283 280 281 282 282 282 283 283 284 285 285 286 288
241 243 244 246 247 248 249 250 252 254 256 258 262 264 267 269 271 273 275 277 278 278 278 279 279 281 281 280 281 281 282 280 280 280 279 280 281 282 283 284 285 286 287
241 243 245 248 249 250 251 253 254 256 258 260 262 264 266 269 270 272 275 277 278 278 278 278 278 278 278 279 279 279 280 279 278 278 278 279 281 282 282 283 284 284 285
241 244 247 250 252 253 255 256 256 257 258 261 262 263 265 268 269 271 273 275 277 278 278 278 277 277 277 277 277 278 278 278 278 278 278 279 281 282 282 283 283 284 283
242 244 247 251 254 255 257 258 259 259 260 261 261 263 265 267 268 270 272 274 276 277 278 277 277 276 275 275 275 276 277 277 277 278 279 279 280 281 282 283 283 283 282
243 246 248 250 253 255 257 259 260 260 262 262 262 262 264 267 268 269 271 273 275 276 276 276 276 275 275 274 274 275 276 276 276 277 277 278 279 279 280 281 282 281 281
244 246 248 249 251 254 258 259 261 262 263 264 262 262 264 266 268 270 271 272 273 274 275 274 274 275 274 274 274 274 275 275 276 276 277 278 278 278 278 278 280 280 280
244 246 248 248 250 253 257 259 261 262 263 263 263 263 264 266 268 270 271 271 271 272 273 274 275 275 275 275 274 274 275 275 276 277 277 278 277 276 276 277 278 278 278
243 245 248 249 250 253 256 258 260 262 263 263 263 263 264 266 268 270 270 270 271 271 272 273 275 275 275 276 276 275 275 276 277 277 277 277 277 276 275 275 276 277 277
242 245 248 251 252 254 255 257 260 262 263 264 263 264 264 265 267 268 269 269 270 271 272 274 275 275 276 276 276 276 276 276 276 276 276 276 276 275 275 274 274 275 276
243 245 248 251 253 254 256 258 260 261 262 263 263 262 264 265 267 268 268 268 270 271 273 275 276 276 276 276 276 276 276 276 277 277 277 276 276 275 275 275 275 274 274
243 246 248 250 252 254 255 257 258 259 261 262 262 263 263 264 265 267 267 268 270 272 274 275 276 277 277 277 277 277 277 277 277 276 277 276 275 275 275 275 275 275 274
244 246 248 250 252 254 255 257 258 259 260 260 261 262 263 264 265 266 268 269 271 273 275 277 277 278 278 278 278 278 278 278 277 276 276 276 275 274 274 275 275 275 275
245 247 249 251 253 255 254 255 256 258 261 260 260 261 264 264 266 267 269 270 272 273 275 276 277 278 279 279 279 278 278 278 277 277 276 275 275 274 274 274 274 275 275
244 246 248 250 253 253 254 255 254 256 259 259 259 262 266 267 268 269 270 272 273 275 276 277 278 278 279 279 279 279 279 279 278 277 276 276 275 274 274 273 273 274 275
243 245 248 250 250 252 253 255 255 255 257 257 259 263 266 269 269 269 270 272 274 275 277 278 278 278 279 280 280 279 279 278 278 278 277 276 275 274 273 272 272 273 274
244 246 248 250 251 252 253 254 256 255 256 257 259 262 264 267 269 269 271 273 274 275 276 277 278 278 280 280 280 279 279 278 279 278 278 278 276 275 273 272 273 274 273
247 249 250 251 252 253 255 256 256 256 257 258 260 263 266 268 270 270 271 273 274 275 276 277 278 279 280 280 279 278 279 279 279 279 279 277 276 275 274 272 272 273 273
250 251 252 253 253 254 255 256 258 259 260 261 262 265 266 269 271 272 271 273 274 276 277 277 278 280 281 280 278 278 279 279 280 279 280 279 277 275 274 274 273 273 273
252 252 252 252 253 254 256 257 259 260 261 262 263 265 266 269 270 272 271 273 275 277 277 278 279 281 281 280 279 279 278 279 280 280 280 280 278 277 276 275 274 273 272
253 253 253 253 254 255 256 258 260 262 263 264 266 267 269 269 270 271 273 274 275 276 278 279 280 281 281 281 280 280 279 278 279 280 281 281 279 278 277 275 273 273 273
253 253 254 255 255 256 258 259 261 263 264 265 266 267 269 269 271 273 274 275 276 276 277 279 280 281 281 281 281 281 281 280 280 281 281 281 280 279 277 275 274 273 273
254 254 254 256 257 258 259 261 263 264 264 266 267 268 268 269 272 274 274 275 276 277 278 280 281 281 281 282 282 283 283 282 282 282 282 282 281 280 277 276 276 275 274
256 256 256 257 259 260 261 262 264 264 264 266 268 269 269 270 272 274 275 275 275 277 278 280 281 281 281 281 282 283 283 283 284 284 283 281 281 279 278 277 276 276 276
Height
5857 5858 5859 5860 5861 5862 5863 5864 5865 5866 5867 5868 5868 5869 5869 5870 5871 5871 5871 5872 5872 5873 5873 5873 5873 5874 5874 5874 5874 5874 5874 5874 5874 5874 5874 5874 5874 5874 5874 5874 5873 5873 5873
5854 5856 5857 5858 5859 5860 5861 5862 5863 5864 5865 5866 5867 5867 5868 5868 5869 5869 5870 5870 5870 5871 5871 5871 5871 5872 5872 5872 5872 5872 5872 5872 5872 5872 5872 5872 5872 5872 5872 5872 5872 5871 5871
5852 5853 5854 5856 5857 5858 5859 5860 5861 5862 5863 5864 5864 5865 5866 5866 5867 5867 5868 5868 5868 5869 5869 5869 5869 5869 5870 5870 5870 5870 5870 5870 5870 5870 5870 5870 5870 5870 5870 5869 5869 5869 5869
5848 5850 5851 5853 5854 5855 5856 5857 5858 5859 5860 5861 5862 5862 5863 5864 5864 5865 5865 5865 5866 5866 5866 5866 5867 5867 5867 5867 5867 5867 5867 5868 5868 5868 5868 5868 5867 5867 5867 5867 5867 5867 5866
5844 5846 5848 5849 5851 5852 5853 5854 5855 5856 5857 5858 5858 5859 5860 5860 5861 5862 5862 5862 5863 5863 5863 5863 5864 5864 5864 5864 5864 5864 5864 5864 5865 5865 5865 5865 5865 5864 5864 5864 5864 5864 5863
5840 5842 5844 5846 5847 5848 5850 5851 5852 5853 5853 5854 5855 5856 5856 5857 5858 5858 5859 5859 5859 5860 5860 5860 5860 5860 5860 5861 5861 5861 5861 5861 5861 5861 5861 5861 5861 5861 5861 5861 5861 5860 5860
5835 5837 5839 5841 5843 5844 5845 5847 5848 5849 5850 5850 5851 5852 5852 5853 5854 5854 5855 5855 5855 5856 5856 5856 5856 5856 5856 5857 5857 5857 5857 5857 5858 5858 5858 5858 5858 5858 5858 5857 5857 5857 5857
5830 5832 5834 5836 5838 5839 5841 5842 5843 5844 5845 5846 5846 5847 5848 5848 5849 5850 5850 5851 5851 5851 5851 5852 5852 5852 5852 5852 5853 5853 5853 5853 5853 5854 5854 5854 5853 5853 5853 5853 5853 5853 5853
5825 5827 5829 5831 5833 5834 5836 5837 5838 5839 5840 5841 5841 5842 5843 5843 5844 5845 5845 5846 5846 5846 5847 5847 5847 5847 5847 5848 5848 5848 5848 5849 5849 5849 5849 5849 5849 5849 5849 5848 5848 5848 5848
5819 5821 5823 5825 5827 5829 5830 5831 5833 5833 5834 5835 5836 5837 5838 5838 5839 5839 5840 5840 5841 5841 5842 5842 5842 5842 5843 5843 5843 5843 5843 5843 5844 5844 5844 5844 5844 5843 5843 5843 5843 5843 5843
5813 5816 5818 5820 5822 5823 5825 5826 5827 5828 5828 5829 5830 5832 5833 5833 5833 5834 5834 5835 5835 5836 5836 5837 5837 5837 5837 5837 5837 5838 5838 5838 5838 5838 5838 5838 5838 5838 5837 5837 5837 5837 5837
5807 5810 5812 5814 5816 5818 5819 5820 5821 5822 5823 5823 5825 5826 5827 5827 5828 5828 5829 5829 5830 5830 5831 5831 5831 5831 5831 5832 5832 5832 5832 5832 5832 5832 5832 5832 5831 5831 5831 5831 5831 5831 5831
5801 5804 5806 5808 5810 5811 5813 5814 5815 5816 5817 5818 5819 5820 5821 5821 5822 5822 5823 5824 5824 5824 5825 5825 5825 5825 5825 5825 5825 5825 5825 5825 5825 5825 5825 5825 5824 5824 5824 5824 5824 5824 5824
5795 5798 5800 5802 5803 5805 5807 5808 5809 5810 5811 5812 5813 5814 5815 5815 5816 5817 5817 5818 5818 5818 5819 5819 5819 5819 5819 5819 5819 5818 5818 5818 5818 5818 5818 5817 5817 5817 5817 5817 5816 5816 5816
5789 5791 5793 5795 5797 5799 5800 5802 5803 5804 5805 5806 5807 5808 5809 5810 5810 5810 5811 5812 5812 5812 5812 5812 5812 5812 5812 5812 5811 5811 5811 5810 5810 5810 5810 5810 5809 5809 5809 5809 5809 5809 5808
5782 5785 5787 5789 5790 5792 5794 5795 5797 5798 5799 5800 5801 5802 5803 5803 5804 5804 5804 5805 5805 5805 5805 5805 5805 5805 5804 5804 5804 5803 5803 5802 5802 5802 5801 5801 5801 5801 5800 5800 5800 5800 5800
5776 5778 5780 5782 5784 5785 5787 5788 5790 5791 5793 5794 5795 5796 5796 5797 5797 5797 5798 5798 5798 5798 5798 5797 5797 5797 5797 5796 5796 5795 5794 5794 5793 5793 5792 5792 5792 5791 5791 5791 5791 5791 5791
5769 5771 5773 5775 5777 5778 5780 5781 5783 5785 5786 5787 5788 5789 5789 5789 5790 5790 5790 5791 5791 5790 5790 5790 5789 5789 5788 5788 5787 5786 5785 5785 5784 5784 5783 5783 5782 5782 5781 5781 5781 5781 5781
5762 5764 5766 5768 5769 5771 5773 5774 5776 5777 5779 5780 5781 5782 5782 5783 5783 5783 5783 5783 5783 5783 5782 5782 5781 5781 5780 5779 5778 5777 5776 5775 5775 5774 5773 5773 5772 5772 5771 5771 5771 5771 5771
5755 5757 5759 5761 5762 5764 5766 5767 5769 5770 5771 5772 5774 5774 5775 5775 5775 5775 5775 5775 5775 5775 5774 5773 5773 5772 5771 5770 5769 5768 5767 5766 5765 5764 5764 5763 5762 5761 5761 5761 5761 5761 5761
5748 5750 5752 5754 5755 5757 5758 5760 5762 5763 5764 5765 5766 5766 5767 5767 5767 5767 5767 5767 5767 5766 5766 5765 5764 5763 5762 5760 5759 5759 5758 5757 5756 5754 5753 5752 5752 5751 5750 5750 5750 5750 5750
5742 5743 5745 5746 5748 5749 5751 5753 5754 5755 5756 5757 5758 5758 5759 5759 5759 5759 5759 5758 5758 5758 5757 5756 5755 5754 5752 5751 5750 5749 5749 5748 5746 5745 5743 5742 5741 5740 5739 5739 5739 5738 5738
5735 5737 5738 5740 5741 5742 5744 5745 5746 5747 5748 5749 5749 5750 5750 5750 5750 5750 5750 5750 5749 5749 5748 5747 5746 5745 5743 5742 5740 5739 5738 5738 5737 5736 5733 5732 5730 5729 5728 5727 5727 5727 5726
5729 5730 5731 5733 5734 5736 5737 5738 5739 5740 5740 5741 5741 5741 5741 5741 5741 5741 5741 5740 5740 5739 5738 5737 5736 5735 5734 5732 5730 5729 5728 5726 5726 5726 5724 5721 5719 5718 5717 5716 5715 5715 5715
5722 5723 5724 5725 5727 5728 5729 5731 5731 5732 5732 5732 5732 5733 5733 5732 5732 5732 5732 5731 5731 5730 5729 5728 5726 5725 5724 5722 5721 5719 5717 5715 5714 5713 5713 5711 5709 5707 5706 5705 5704 5704 5703
5716 5716 5717 5718 5719 5720 5721 5722 5722 5723 5723 5723 5723 5724 5723 5723 5723 5722 5722 5721 5720 5720 5719 5717 5716 5715 5713 5712 5710 5708 5707 5705 5703 5702 5701 5700 5699 5697 5695 5694 5693 5692 5691